{"data":{"norad_id":46582,"intl_designator":"2020-070BC","name":"STARLINK-1728","alt_names":[],"object_type":"PAYLOAD","status":"ACTIVE","operator":null,"country":"US","launch_date":"2020-10-06","launch_site_code":"AFETR","launch_vehicle":null,"mission":null,"orbit_class":"UNKNOWN","rcs_meters":null,"size_class":null,"mass_kg":null,"dimensions":null,"purposes":["comms"],"wikipedia_slug":null,"has_3d_model":false,"image_url":null,"decayed_at":null,"tle_current":{"epoch":"2026-08-19T21:18:43.460928Z","epoch_age_seconds":2757107,"freshness":"OLD","line1":"1 46582U 20070BC  26231.88800302  .06000810  12279-4  75061-3 0  9999","line2":"2 46582  53.0119  32.3382 0009609 296.5662  63.4397 16.35137997325943","mean_motion":16.35137997,"eccentricity":0.0009609,"inclination_deg":53.0119,"raan_deg":32.3382,"arg_perigee_deg":296.5662,"mean_anomaly_deg":63.4397,"bstar":0.00075061,"rev_number":32594,"period_min":88.065961566668,"perigee_km":172.46761234196,"apogee_km":185.06867264481,"semimajor_km":6556.9051424934,"source":"CELESTRAK","updated_at":"2026-08-20T09:00:36.500956Z"}}}